Location: Nitra
(0.0000°N, 18.0833°E)
Time: 01:33:01
(UTC+02:00)

XW-2B - Visible Passes

Search period start: 07 June 2023 00:00
Search period end: 17 June 2023 00:00
Orbit: 475 x 489 km, 97.5° (Epoch: 06 June)

Date Brightness Start Highest point End Pass type
(mag) Time Alt. Az. Time Alt. Az. Time Alt. Az.
07 Jun ? 19:46:02 10° WSW 19:46:38 10° WSW 19:47:13 10° W visible
08 Jun ? 05:59:33 10° ENE 06:00:57 12° ESE 06:02:20 10° SE visible
08 Jun ? 19:18:31 10° SSW 19:21:34 26° W 19:24:36 10° NW visible
11 Jun ? 06:15:53 10° NE 06:18:43 23° ESE 06:21:33 10° SSE visible
11 Jun ? 19:37:25 10° SW 19:39:18 14° WSW 19:41:12 10° WNW visible
12 Jun ? 19:10:50 10° SSW 19:14:09 35° WSW 19:17:27 10° NW visible
15 Jun ? 06:08:40 10° ENE 06:11:02 17° ESE 06:13:24 10° SE visible
15 Jun ? 19:29:02 10° SSW 19:31:35 18° WSW 19:34:07 10° NW visible
